TimeEST,TemperatureF,Dew PointF,Humidity,Sea Level PressureIn,VisibilityMPH,Wind Direction,Wind SpeedMPH,Gust SpeedMPH,PrecipitationIn,Events,Conditions,WindDirDegrees,DateUTC
12:11 AM,17.6,12.2,79,30.09,1.5,Calm,Calm,-,0.01,Snow,Light Snow,0,2013-01-24 05:11:00
12:21 AM,17.6,12.2,79,30.09,2.0,Calm,Calm,-,0.01,Snow,Light Snow,0,2013-01-24 05:21:00
12:36 AM,15.8,12.2,86,30.10,1.8,Calm,Calm,-,0.01,Snow,Light Snow,0,2013-01-24 05:36:00
12:46 AM,15.8,12.2,86,30.10,3.0,Calm,Calm,-,0.01,Snow,Light Snow,0,2013-01-24 05:46:00
12:53 AM,15.1,12.0,88,30.14,3.0,NW,3.5,-,0.01,Snow,Light Snow,310,2013-01-24 05:53:00
1:00 AM,15.8,12.2,86,30.11,2.5,NW,4.6,-,0.00,Snow,Light Snow,320,2013-01-24 06:00:00
1:11 AM,15.8,12.2,86,30.12,4.0,NW,5.8,-,0.00,Snow,Light Snow,310,2013-01-24 06:11:00
1:53 AM,15.1,10.0,80,30.18,10.0,NNW,10.4,-,0.00,,Mostly Cloudy,340,2013-01-24 06:53:00
2:08 AM,14.0,8.6,79,30.16,10.0,NNW,9.2,-,N/A,,Scattered Clouds,330,2013-01-24 07:08:00
2:53 AM,14.0,8.1,77,30.23,10.0,NNW,13.8,-,N/A,,Scattered Clouds,330,2013-01-24 07:53:00
3:53 AM,12.9,7.0,77,30.29,10.0,NW,15.0,-,N/A,,Clear,320,2013-01-24 08:53:00
4:53 AM,12.0,6.1,77,30.33,10.0,NNW,11.5,-,N/A,,Clear,330,2013-01-24 09:53:00
5:53 AM,10.9,6.1,81,30.38,10.0,NNW,11.5,-,N/A,,Clear,330,2013-01-24 10:53:00
6:53 AM,7.0,1.9,80,30.42,10.0,NW,10.4,-,N/A,,Clear,310,2013-01-24 11:53:00
7:53 AM,10.9,5.0,77,30.47,10.0,NNW,11.5,-,N/A,,Mostly Cloudy,340,2013-01-24 12:53:00
8:53 AM,12.0,3.9,70,30.51,10.0,North,11.5,18.4,N/A,,Clear,350,2013-01-24 13:53:00
9:53 AM,12.9,5.0,71,30.56,10.0,North,13.8,-,N/A,,Clear,350,2013-01-24 14:53:00
10:53 AM,16.0,6.1,65,30.60,10.0,North,10.4,-,N/A,,Clear,10,2013-01-24 15:53:00
11:53 AM,18.0,7.0,62,30.62,10.0,North,8.1,-,N/A,,Clear,360,2013-01-24 16:53:00
12:53 PM,19.0,6.1,57,30.60,10.0,NNE,4.6,-,N/A,,Clear,20,2013-01-24 17:53:00
1:53 PM,21.0,6.1,53,30.59,10.0,NNE,3.5,-,N/A,,Clear,30,2013-01-24 18:53:00
2:53 PM,19.9,5.0,52,30.58,10.0,SW,3.5,-,N/A,,Clear,220,2013-01-24 19:53:00
3:53 PM,21.0,7.0,55,30.59,10.0,SW,6.9,-,N/A,,Overcast,220,2013-01-24 20:53:00
4:53 PM,19.9,6.1,55,30.60,10.0,Calm,Calm,-,N/A,,Overcast,0,2013-01-24 21:53:00
5:53 PM,18.0,5.0,57,30.60,10.0,Calm,Calm,-,N/A,,Clear,0,2013-01-24 22:53:00
6:53 PM,18.0,3.0,52,30.61,10.0,NNE,3.5,-,N/A,,Clear,30,2013-01-24 23:53:00
7:53 PM,15.1,1.9,56,30.60,10.0,Calm,Calm,-,N/A,,Clear,0,2013-01-25 00:53:00
8:53 PM,14.0,5.0,67,30.58,10.0,SSE,4.6,-,N/A,,Clear,150,2013-01-25 01:53:00
9:53 PM,16.0,7.0,68,30.56,10.0,SE,4.6,-,N/A,,Clear,140,2013-01-25 02:53:00
10:53 PM,16.0,8.1,71,30.55,10.0,SSE,6.9,-,N/A,,Clear,150,2013-01-25 03:53:00
11:53 PM,16.0,8.1,71,30.53,10.0,SSE,5.8,-,N/A,,Clear,150,2013-01-25 04:53:00